Regional Weather Roundup
Issued by NWS

Home | Current Version | Previous Version | Text Only | Print | Product List | Glossary Off
Versions: 1 2 3 4 5 6 7 8 9 10 11 12 13 14 15 16 17 18 19 20 21 22 23 24 25 26 27 28 29 30 31 32 33 34 35 36 37 38 39 40 41 42 43 44 45 46 47 48 49 50

000
ASUS43 KOAX 152210
RWRNE

WEATHER ROUNDUP FOR NEBRASKA
NATIONAL WEATHER SERVICE OMAHA NE
400 PM CST MON JAN 15 2018

NOTES: SATELLITE DATA IS BEING USED TO AUGMENT CLOUD COVER ABOVE
       12000 FEET.
       "FAIR" INDICATES FEW OR NO CLOUDS BELOW 12,000 FEET WITH NO
       SIGNIFICANT WEATHER AND/OR OBSTRUCTIONS TO VISIBILITY.


NEZ001>004-019>022-054>056-152300-
NEBRASKA PANHANDLE

CITY           SKY/WX    TMP DP  RH WIND       PRES   REMARKS
SCOTTSBLUFF    SUNNY     14   1  56 NW17      30.56R WCI  -3
ALLIANCE       SUNNY      4  -3  73 N14       30.55R WCI -14
CHADRON        SUNNY      9  -3  58 N8        30.66R WCI  -3
GORDON         FAIR       3  -5  70 N17       30.59R WCI -17
KIMBALL        SUNNY     14  -2  49 NW23      30.47R WCI  -5
SIDNEY         SUNNY     10   0  63 N16       30.51R WCI  -7
$$

NEZ057>060-069>072-079>082-152300-
SOUTHWEST NEBRASKA

CITY           SKY/WX    TMP DP  RH WIND       PRES   REMARKS
NORTH PLATTE   SUNNY      8  -8  48 N21G30    30.61R WCI -12
IMPERIAL       SUNNY     12   0  58 N22G31    30.55S WCI  -7
LEXINGTON      MOSUNNY    8  -4  59 NW23      30.61R WCI -13
MCCOOK         SUNNY     12  -2  53 N23G31    30.61R WCI  -7
OGALLALA       SUNNY     11  -2  56 N23       30.58R WCI  -8
$$

NEZ005>010-023>029-035>040-094-152300-
NORTH CENTRAL NEBRASKA

CITY           SKY/WX    TMP DP  RH WIND       PRES   REMARKS
VALENTINE      MOSUNNY    3  -7  63 NW23G32   30.62R WCI -19
AINSWORTH      CLOUDY     2  -5  70 NW20G30   30.60S WCI -19
BROKEN BOW     SUNNY      4  -8  57 NW24G32   30.58S WCI -19
O`NEILL        CLOUDY     1  -5  75 NW24G35   30.61R HAZE    WCI -22
ORD            CLOUDY     4  -6  63 NW25G36   30.62R WCI -19
THEDFORD       SUNNY      4  -6  62 N26G33    30.59R WCI -19
$$

NEZ041-046>049-061>064-073>077-083>087-152300-
SOUTH CENTRAL NEBRASKA

CITY           SKY/WX    TMP DP  RH WIND       PRES   REMARKS
GRAND ISLAND   SUNNY      6  -4  63 NW22G31   30.60R WCI -15
AURORA         PTSUNNY    6  -4  62 NW25G33   30.61R WCI -16
HASTINGS       SUNNY      6  -4  63 NW24      30.60R WCI -16
HEBRON         MOSUNNY    9  -1  61 NW13G26   30.62S WCI  -6
HOLDREGE       SUNNY      7  -3  64 N21G29    30.60R WCI -13
KEARNEY        SUNNY      5  -4  66 NW16      30.61R WCI -14
YORK           PTSUNNY    7   0  72 N18G32    30.59R WCI -12
$$

NEZ011>018-030>034-042>045-152300-
NORTHEAST NEBRASKA

CITY           SKY/WX    TMP DP  RH WIND       PRES   REMARKS
NORFOLK        LGT SNOW   2  -5  72 N21G30    30.60R WCI -20
ALBION         CLOUDY     4  -6  64 NW25G35   30.59R WCI -19
BLAIR          CLOUDY     3  -7  63 NW20G31   30.58R WCI -18
COLUMBUS       CLOUDY     5  -5  63 NW29G35   30.61R WCI -19
FREMONT        CLOUDY     4  -6  63 NW22G35   30.62R WCI -18
TEKAMAH        CLOUDY     2  -8  63 NW25      30.62R WCI -22
WAYNE          PTSUNNY   -1 -11  63 NW24G31   30.61R WCI -25
$$

NEZ050>053-065>068-078-088>093-152300-
SOUTHEAST NEBRASKA

CITY           SKY/WX    TMP DP  RH WIND       PRES   REMARKS
LINCOLN        CLOUDY     7  -4  60 N22G32    30.62R WCI -14
OMAHA EPPLEY   PTSUNNY    4  -7  60 NW23G35   30.60R WCI -18
BEATRICE       CLOUDY    10   0  66 NW24G31   30.61R WCI -11
FALLS CITY     PTSUNNY    6  -5  60 NW23G31   30.60R WCI -15
NEBRASKA CITY  PTSUNNY    6  -4  65 N17G30    30.60R WCI -13
PLATTSMOUTH    CLOUDY     4  -6  65 NW20G25   30.59R WCI -17
$$

NEZ044-045-051>053-067-152300-
OMAHA AREA

CITY           SKY/WX    TMP DP  RH WIND       PRES   REMARKS
OMAHA EPPLEY   PTSUNNY    4  -7  60 NW23G35   30.60R WCI -18
BLAIR          CLOUDY     3  -7  63 NW20G31   30.58R WCI -18
FREMONT        CLOUDY     4  -6  63 NW22G35   30.62R WCI -18
MILLARD        CLOUDY     5  -5  62 NW17G25   30.62R WCI -14
OFFUTT AFB     PTSUNNY    3  -6  66 NW21G32   30.60R WCI -18
PLATTSMOUTH    CLOUDY     4  -6  65 NW20G25   30.59R WCI -17
WAHOO          CLOUDY     6  -4  65 N25       30.61R WCI -16
$$



USA.gov is the U.S. government's official web portal to all federal, state and local government web resources and services.